カタログに戻る

COSMOS 2436

GLONASS

運用中ナビゲーションMEO
NORAD 32395·PAYLOAD·🇷🇺 Russia

打ち上げ Dec 25, 2007 から Baikonur Cosmodrome

Loading…

次のパス (今後24時間)

TLE

最新Source: CelesTrak SupGP

元期: Sep 12, 2026, 23:59 UTC

1 32395C 07065C   26255.99979167  .00000000  00000+0  00000+0 0  2550
2 32395  64.3277 189.0292 0017504 359.9599 276.7950  2.13099904    14

AllMySatでCOSMOS 2436をリアルタイム追跡

Download on the App Store